Regional Weather Roundup
Issued by NWS Newport/Morehead, NC

Home | Current Version | Previous Version | Text Only | Print | Product List | Glossary On
Versions: 1 2 3 4 5 6 7 8 9 10 11 12 13 14 15 16 17 18 19 20 21 22 23 24 25 26 27 28 29 30 31 32 33 34 35 36 37 38 39 40 41 42 43 44 45 46 47 48 49 50
000
ASUS42 KMHX 311322
RWRMHX
WEATHER ROUNDUP FOR EASTERN NORTH CAROLINA
NATIONAL WEATHER SERVICE NEWPORT/MOREHEAD CITY NC
900 AM EDT FRI OCT 31 2014

NOTE: "FAIR" INDICATES FEW OR NO CLOUDS BELOW 12,000 FEET
WITH NO SIGNIFICANT WEATHER AND/OR OBSTRUCTIONS TO VISIBILITY

NCZ015>017-031-032-045>047-102-103-311400-
NORTH COAST

CITY           SKY/WX    TMP DP  RH WIND       PRES   REMARKS
EDENTON        CLOUDY    51  47  85 NE6       29.93F
ELIZABETH CITY CLOUDY    57  49  74 N12       29.93S
KITTY HAWK     CLOUDY    60  45  59 N7        29.89S
MANTEO         CLOUDY    59  46  60 NE13G20   29.90S

$$

NCZ045>047-081-094-103-104-311400-
CENTRAL COAST

CITY           SKY/WX    TMP DP  RH WIND       PRES   REMARKS
FRISCO         LGT RAIN  59  51  75 NE10G22   29.87R
SWANQUARTER      N/A     55 N/A N/A VRB6G13   29.85S

$$

NCZ095-097-098-100-101-311400-
SOUTHERN COAST

CITY           SKY/WX    TMP DP  RH WIND       PRES   REMARKS
BEAUFORT       CLOUDY    59  47  64 N14       29.87F
CEDAR ISLAND     N/A     61 N/A N/A N25       29.91S
JACKSONVILLE   SUNNY     52  46  80 N8        29.89F
PINEY ISLAND   CLOUDY    63  47  55 N16G26    29.87S
WILMINGTON     SUNNY     53  47  79 N9        29.91R


$$

NCZ011>013-027>030-043-044-078>080-089-090>093-098-311400-
COASTAL PLAIN

CITY           SKY/WX    TMP DP  RH WIND       PRES   REMARKS
AHOSKIE        NOT AVBL
CLINTON        SUNNY     49  46  86 NE6       29.94R
ELIZABETHTOWN  SUNNY     49  46  90 CALM      29.93S
GOLDSBORO      MOSUNNY   49  48  96 NE9       29.92S
GREENVILLE     CLOUDY    48  45  87 N6        29.95F
HAVELOCK       PTSUNNY   56  49  77 N10       29.89F
KENANSVILLE    SUNNY     51  45  81 N8        29.93F
KINSTON        PTSUNNY   50  46  87 N6        29.94S
NEW BERN       PTSUNNY   53  47  79 N8        29.91F
RICHLANDS      SUNNY     52  45  76 N7        29.91S
ROCKY MOUNT    PTSUNNY   48  43  82 N8        29.95S
WASHINGTON     CLOUDY    49  45  85 NE8       29.92F
WHITEVILLE     SUNNY     52  46  79 N3        29.92R

$$

AMZ130-135-150-152-154-156-158-170-250-252-270-ANZ085-086-088-633-658-670-311400-
MARINE OBSERVATIONS

STATION/POSITION TIME  TEMP    WIND        PRES    WAVE   SWELL
                       AIR SEA DIR/SP/G            HT/PER HT/PER
                 (UTC) (F)     (DEG/KT/KT) (MB)    (FT/S) (FT/S)
CHESAPEAKE LIGHT 1300   58      10/ 19/ 21 1013.7
64 E VA BEACH    1300   61 66   30/ 16/ 19 1012.2    3/ 4   2/ 7
DUCK             1300   60 65   20/ 19/ 23 1011.6
2 E DUCK         NOT AVBL
10 NE DUCK       1300      67                N/A     4/ 5
OREGON INLET     1300   60 66   20/ 16/ 21 1011.6
13E OREGON INLT  1300      69                N/A     5/ 5
HATTERAS CG      1300   60 65   30/ 16/ 22 1011.2
DIAMOND BUOY     1300   64     360/ 21/ 25 1010.3    6/ 6   2/11
17 S OCRACOKE    NOT AVBL
CAPE LOOKOUT     1300   60      20/ 20/ 24 1011.0
BEAUFORT LAB     1300   59 67   10/ 12/ 16 1010.7
30 SE NEW RIVER  1300   63 74   30/ 23/ 29 1009.8    6/ 5
5 SE WRIGHTSVLE  1300   57 71  360/ 16/ 17   N/A
225 S CAPE HAT   1248   73 77  220/  8/ 10 1010.2    4/ 8   3/ 8
41 SE CHARLESTON 1300   67 76   20/ 17/ 19 1010.5    6/ 7   2/ 9

$$



USA.gov is the U.S. government's official web portal to all federal, state and local government web resources and services.